Карточка аэропорта UATT

Внимание!
Информация на этой странице в стадии наполнения.
Если вы не увидели какой-то информации, или заметили неточность - пожалуйста сообщите нам!
Спасибо!
Команда RU-STAFF
Название аэропортаАктобе
Название аэропорта (англ.)Aktobe
Превышение738 ft. (224.9 m.)
Координаты50°14.748', 57°12.402'
Высота перехода10000ft
Эшелон переходаFL120, QNH<733:FL130
Коды ответчика3440-3447, 3540-3547
Зона ОрВДАктобе РПИ (UATT)
Данные METARUATT 280530Z 00000MPS CAVOK M13/M17 Q1041 NOSIG RMK QFE760/1013
Проноз погоды (TAF)UATT 280500Z 2806/2906 33002MPS 9999 SCT040 TXM00/2812Z TNM14/2902Z BECMG 2818/2820 3100 BR SCT011 TEMPO 2818/2905 0500 FZFG VV002 BECMG 2905/2906 9999 NSW
NOTAMshow/hide NOTAM
AWOS   TABLE

Информация о ВПП

ВПП Длина ВПП (м.) Покрытие Курс ВПП Частота ILS
313202Бетон315111.7
133202Бетон135111.7

Диспетчерские позиции




Спутниковое изображение